Tracking 19827 objects as of 23-Aug-2019
HD Live streaming from Space Station
objects crossing your sky now

FREGAT R/B

Track FREGAT R/B now!


NORAD ID: 41551
Int'l Code: 2016-030C
Perigee: 23,510.2 km
Apogee: 23,623.9 km
Inclination: 56.5 °
Period: 859.2 minutes
Semi major axis: 29938 km
RCS: Unknown
Launch date: May 24, 2016
Source: Commonwealth of Independent States (former USSR) (CIS)
Launch site: FRENCH GUIANA (FRGUI)

Note: This is a ROCKET BODY
aabbcc
Your satellite tracking list
Your tracking list is empty




NASA's NSSDC Master Catalog

Two Line Element Set (TLE):
1 41551U 16030C   19232.29998414 -.00000003  00000-0  00000+0 0  9992
2 41551  56.5075 291.3284 0018993 216.8655 143.0870  1.67597693 19813
Source of the keplerian elements: AFSPC